Regional Weather Roundup
Issued by NWS Newport/Morehead, NC

Current Version | Previous Version | Text Only | Print | Product List | Glossary On
Versions: 1 2 3 4 5 6 7 8 9 10 11 12 13 14 15 16 17 18 19 20 21 22 23 24 25 26 27 28 29 30 31 32 33 34 35 36 37 38 39 40 41 42 43 44 45 46 47 48 49 50
000 ASUS42 KMHX 041513 RWRMHX WEATHER ROUNDUP FOR EASTERN NORTH CAROLINA NATIONAL WEATHER SERVICE NEWPORT/MOREHEAD CITY NC 1100 AM EDT TUE AUG 04 2015 NOTE: "FAIR" INDICATES FEW OR NO CLOUDS BELOW 12,000 FEET WITH NO SIGNIFICANT WEATHER AND/OR OBSTRUCTIONS TO VISIBILITY NCZ015>017-031-032-045>047-102-103-041600- NORTH COAST CITY SKY/WX TMP DP RH WIND PRES REMARKS EDENTON N/A 87 74 66 SW12 30.02S ELIZABETH CITY MOSUNNY 87 77 72 SW15 30.01S KITTY HAWK SUNNY 89 75 64 SW5 30.01S MANTEO SUNNY 85 73 68 SW14 30.03S $$ NCZ045>047-081-094-103-104-041600- CENTRAL COAST CITY SKY/WX TMP DP RH WIND PRES REMARKS FRISCO CLOUDY 81 76 84 S6 30.06R SWANQUARTER N/A 84 N/A N/A S9 30.00S $$ NCZ095-097-098-100-101-041600- SOUTHERN COAST CITY SKY/WX TMP DP RH WIND PRES REMARKS BEAUFORT CLOUDY 81 75 82 S15 30.03S CEDAR ISLAND N/A 84 N/A N/A SE9G15 30.09R JACKSONVILLE LGT RAIN 79 74 84 SE3 30.02R PINEY ISLAND CLOUDY N/A N/A N/A S8G18 30.04R WILMINGTON CLOUDY 80 74 81 S14G22 30.00R $$ NCZ011>013-027>030-043-044-078>080-089-090>093-098-041600- COASTAL PLAIN CITY SKY/WX TMP DP RH WIND PRES REMARKS AHOSKIE MOSUNNY 88 75 65 CALM 30.01R CLINTON PTSUNNY 85 75 73 S8 30.02S ELIZABETHTOWN PTSUNNY 81 78 91 E3 30.01S GOLDSBORO PTSUNNY 85 75 70 S7 30.00R GREENVILLE MOSUNNY 88 73 62 SW14 30.03S HAVELOCK LGT RAIN 78 71 79 SW15G24 30.05R KENANSVILLE CLOUDY N/A N/A N/A SE6 30.03S KINSTON PTSUNNY 84 75 74 S10 30.02S NEW BERN CLOUDY 81 75 82 S7 30.05S RICHLANDS CLOUDY 81 72 74 S9 30.03R ROCKY MOUNT MOSUNNY 90 72 55 S12 30.01F WASHINGTON PTSUNNY 84 74 73 SW8 30.03R WHITEVILLE CLOUDY 80 76 87 E7 29.98S $$ AMZ130-135-150-152-154-156-158-170-250-252-270-ANZ085-086-088-633-658-670-041600- MARINE OBSERVATIONS STATION/POSITION TIME TEMP WIND PRES WAVE SWELL AIR SEA DIR/SP/G HT/PER HT/PER (UTC) (F) (DEG/KT/KT) (MB) (FT/S) (FT/S) CHESAPEAKE LIGHT 1500 80 220/ 17/ 18 1015.7 64 E VA BEACH 1450 81 81 220/ 16/ 19 1015.4 4/ 7 2/ 8 DUCK 1400 82 62 220/ 12/ 15 1015.5 2 E DUCK 1411 72 N/A 2/ 5 OREGON INLET 1400 81 80 200/ 16/ 19 1016.7 13E OREGON INLT 1500 82 N/A 3/11 2/11 HATTERAS CG 1400 81 78 200/ 4/ 6 1016.8 DIAMOND BUOY 1450 81 84 190/ 19/ 23 1017.6 4/ 7 2/ 7 CAPE LOOKOUT 1500 81 180/ 17/ 20 1016.7 BEAUFORT LAB 1400 82 79 190/ 13/ 18 1016.0 30 SE NEW RVR IN NOT AVBL 27 SE WRIGHTSVLE 1400 78 82 180/ 25/ 31 N/A 5 SE WRIGHTSVLE 1408 82 82 180/ 21/ 27 1014.5 225 S CAPE HAT 1450 83 81 190/ 14/ 16 1019.1 5/ 6 2/10 41 SE CHARLESTON 1450 81 83 250/ 14/ 16 1013.8 6/ 8 3/ 8 $$

USA.gov is the U.S. government's official web portal to all federal, state and local government web resources and services.